Location: Eschentzwiller
(47.7125°N, 7.3981°E)
Time: 04:10:32
(UTC+00:00)

Cosmos 1076 Rocket - Pass Details

Date: 27 October 2020
Orbit: 589 x 612 km, 82.5° (Epoch: 01 December)

Event Time Altitude Azimuth Distance (km) Brightness Sun altitude
Rises 18:03:24 0° 354° (N) 2,836 7.0 -17.9°
Reaches altitude 10° 18:05:39 10° 358° (N) 1,930 6.1 -18.3°
Maximum altitude 18:09:51 57° 78° (ENE) 701 3.4 -19.0°
Enters shadow 18:11:35 32° 142° (SE) 1,019 4.3 -19.3°
